Regional Weather Roundup
Issued by NWS

Home | Current Version | Previous Version | Graphics & Text | Print | Product List | Glossary On
Versions: 1 2 3 4 5 6 7 8 9 10 11 12 13 14 15 16 17 18 19 20 21 22 23 24 25 26 27 28 29 30 31 32 33 34 35 36 37 38 39 40 41 42 43 44 45 46 47 48 49 50
000
ASUS43 KBIS 280810
RWRND

NORTH DAKOTA REGIONAL WEATHER ROUNDUP
NATIONAL WEATHER SERVICE BISMARCK ND
300 AM CDT TUE APR 28 2015

NOTE: "FAIR" INDICATES FEW OR NO CLOUDS BELOW 12,000 FEET WITH NO
SIGNIFICANT WEATHER AND/OR OBSTRUCTIONS TO VISIBILITY.


NDZ001>003-009>011-017-280900-
NORTHWEST NORTH DAKOTA

CITY           SKY/WX    TMP DP  RH WIND       PRES   REMARKS
WILLISTON      CLEAR     38  35  89 CALM      30.30S
MINOT          CLEAR     40  36  86 SW10      30.27F
MINOT AFB      CLEAR     38  38 100 W9        30.26F
$$

NDZ018>021-031>035-040>046-280900-
SOUTHWEST NORTH DAKOTA

CITY           SKY/WX    TMP DP  RH WIND       PRES   REMARKS
BISMARCK       CLEAR     35  33  92 W5        30.31F
DICKINSON      CLEAR     32  29  88 W7        30.30F
GARRISON         N/A     35  33  92 CALM      30.29F
HETTINGER ARPT CLEAR     29  28  96 W6        30.33F
$$

NDZ004>008-012>016-024-026-027-054-280900-
NORTHEAST NORTH DAKOTA

CITY           SKY/WX    TMP DP  RH WIND       PRES   REMARKS
GRAND FORKS    CLOUDY    43  41  93 NW7       30.26S FOG
GRND FRKS AFB  CLOUDY    45  43  93 N3        30.26F FOG
DEVILS LAKE    MOCLDY    34  30  86 CALM      30.27F VSB 1/4
$$

NDZ022-023-025-028>030-036>039-047>053-280900-
SOUTHEAST NORTH DAKOTA

CITY           SKY/WX    TMP DP  RH WIND       PRES   REMARKS
FARGO          RAIN      47  44  90 N12       30.25R FOG
JAMESTOWN      CLEAR     39  37  92 NW9       30.27S
$$



USA.gov is the U.S. government's official web portal to all federal, state and local government web resources and services.